Back to catalog

STARLINK-37472

AliveCommunicationsVLEO
NORAD 69172·PAYLOAD·🇺🇸 United States

Launched May 21, 2026 from Cape Canaveral Space Force Station

Loading…

Next Passes (next 24 hours)

TLE

FreshSource: CelesTrak SupGP

Epoch: Sep 14, 2026, 14:49 UTC

1 69172C 26111AA  26257.61784722 -.00004644  00000+0 -13717-3 0  2573
2 69172  53.1567  92.9233 0001257  98.6591 126.6363 15.34399446    11

Track STARLINK-37472 in real time with AllMySat

Download on the App Store